COSMOS 1375 DEB, 16210

Orbit data source: Space-Track

COSMOS 1375 DEB, 16210 is space debris in LEO originally from a launch on Sun, 06 Jun 1982 UTC launched from the Plesetsk Missile And Space Complex (PKMTR). Debris objects in space refer to the collection of defunct objects orbiting the Earth. Examples of debris include non-operational satellites, rocket bodies, and fragments generated from explosions, collisions, or faulty payload assembly.

Loading next visibility...
Identifier
16210, 1982-055M
Orbit
LEO
Country
Flag of CISCIS
Related business
Manufacturer
Unknown
Mission
Spacecraft
Bus & Motor
Unknown
Mass
Unknown
Launch date (UTC)
1982-06-06 (44 years ago)
Launch vehicle
Unknown
Launch site
Plesetsk Missile And Space Complex (PKMTR)
Object type
Payload
Rocket body
Debris
Shape & HBR
Unknown shape, 0.3 m
Radar Cross Section
Medium (>0.1 m² and <1 m²)

Expand to show TLE details & history
Last TLE update: 2 days ago

TLE from 2 days ago
0 COSMOS 1375 DEB
1 16210U 82055M   26171.46127882 -.00000051  00000-0  30778-4 0  9991
2 16210  65.8347  71.8838 0017249  76.3375 101.1863 13.74587015 40368
Epoch: 2026-06-20T11:04Z
TLE epoch observation values (Epoch: 2026-06-20T11:04:14.490Z)
Latitude
1.99715°
Longitude
176.25601°
Altitude
987.382 km
Speed
7.357 km/s
True Right ascension
16h 43m 58s
True Declination
1° 59' 08"
Sunlit
Object was in full shadow at epoch
Visualization orbit readout
Latitude
Unknown
Longitude
Unknown
Altitude
Unknown
Speed
Unknown
Apparent Right ascension
Unknown
Apparent Declination
Unknown
Sunlit
N/A
Visualization observer readout
Local Sidereal Time
03:40:32
Azimuth
Unknown
Elevation
Unknown
Doppler factor
Unknown
Orbital elements
Apogee altitude
994.361 km
Perigee altitude
968.971 km
Semi-major axis
7,359.803 km
Eccentricity
0.00172
Inclination
65.8347°
RAAN
71.8838°
Arg. of periapsis
76.3375°
True anomaly
101.38012°
Mean anomaly
101.1863°
Eccentric anomaly
101.28322°
Mean motion
3.43751 °/min
Orbital period
104.73 mins
BSTAR
0.000030778
Loading maneuver chart data...
Computing Atmospheric mass density...
Loading historical data...
Loading historical data...
Loading historical data...
Loading historical data...
Loading historical data...
Loading historical data...
Loading historical data...

Documentation

Showing up to 5 results
|